Location: Aragnouet
(42.7874°N, 0.2165°E)
Time: 00:44:36
(UTC+00:00)

Cosmos 2184 Rocket - Pass Details

Date: 09 April 2020
Orbit: 958 x 1003 km, 82.9° (Epoch: 02 June)

Event Time Altitude Azimuth Distance (km) Brightness Sun altitude
Rises 19:01:03 0° 354° (N) 3,703 7.3 -5.5°
Reaches altitude 10° 19:03:37 10° 358° (N) 2,744 6.6 -5.9°
Maximum altitude 19:09:52 65° 80° (E) 1,063 4.0 -7.0°
Drops below altitude 10° 19:16:00 10° 162° (SSE) 2,697 6.0 -8.1°
Sets 19:18:30 0° 165° (SSE) 3,635 6.7 -8.5°
